RYR120T LHBP-EDDB

Flight info

Callsign RYR120T
Flight time 1h 2m
Altitude 38000
Route BADOV DCT MAVOR DCT KATQA DCT ODLIV DCT BEFRE T204 NUKRO
Aircraft B738/M-SDE3FGILRWY/SB1

Departure

Time 2026-05-07 17:13
Airport Budapest Liszt Ferenc International Airport (LHBP)

Arrival

Time 2026-05-07 18:16
Airport Berlin Brandenburg Airport (EDDB)
Time Latitude Longitude Altitude Speed Heading
2026-05-07 16:30 47.43536 19.26434 456 ft 0 kts 222°
2026-05-07 17:00 47.43537 19.26435 456 ft 2 kts 222°
2026-05-07 17:01 47.43557 19.26458 457 ft 4 kts 209°
2026-05-07 17:01 47.43581 19.26471 455 ft 4 kts 172°
2026-05-07 17:01 47.43596 19.26462 455 ft 0 kts 132°
2026-05-07 17:03 47.43592 19.26468 456 ft 3 kts 132°
2026-05-07 17:03 47.43567 19.26508 457 ft 8 kts 133°
2026-05-07 17:04 47.43522 19.26581 455 ft 11 kts 132°
2026-05-07 17:04 47.43470 19.26665 457 ft 11 kts 132°
2026-05-07 17:04 47.43419 19.26747 457 ft 11 kts 133°
2026-05-07 17:04 47.43370 19.26826 457 ft 10 kts 133°
2026-05-07 17:05 47.43322 19.26903 457 ft 10 kts 133°
2026-05-07 17:05 47.43299 19.26993 457 ft 10 kts 70°
2026-05-07 17:05 47.43329 19.27098 457 ft 12 kts 68°
2026-05-07 17:05 47.43301 19.27204 457 ft 12 kts 132°
2026-05-07 17:06 47.43239 19.27304 457 ft 14 kts 132°
2026-05-07 17:06 47.43169 19.27417 457 ft 16 kts 133°
2026-05-07 17:06 47.43093 19.27540 457 ft 17 kts 132°
2026-05-07 17:06 47.43010 19.27673 457 ft 18 kts 133°
2026-05-07 17:07 47.42923 19.27813 457 ft 19 kts 132°
2026-05-07 17:07 47.42837 19.27952 456 ft 18 kts 133°
2026-05-07 17:07 47.42754 19.28086 456 ft 17 kts 132°
2026-05-07 17:07 47.42674 19.28216 456 ft 17 kts 132°
2026-05-07 17:08 47.42596 19.28340 456 ft 16 kts 132°
2026-05-07 17:08 47.42522 19.28460 456 ft 16 kts 133°
2026-05-07 17:08 47.42451 19.28575 456 ft 15 kts 132°
2026-05-07 17:08 47.42382 19.28686 456 ft 14 kts 133°
2026-05-07 17:09 47.42317 19.28791 456 ft 14 kts 132°
2026-05-07 17:09 47.42254 19.28892 456 ft 13 kts 132°
2026-05-07 17:09 47.42196 19.28989 455 ft 10 kts 131°
2026-05-07 17:10 47.42161 19.29057 456 ft 0 kts 117°
2026-05-07 17:11 47.42160 19.29062 456 ft 2 kts 115°
2026-05-07 17:11 47.42151 19.29098 456 ft 6 kts 104°
2026-05-07 17:11 47.42150 19.29179 452 ft 9 kts 80°
2026-05-07 17:12 47.42186 19.29276 452 ft 13 kts 46°
2026-05-07 17:12 47.42273 19.29330 443 ft 15 kts
2026-05-07 17:12 47.42355 19.29287 444 ft 12 kts 318°
2026-05-07 17:12 47.42395 19.29224 432 ft 9 kts 313°
2026-05-07 17:13 47.42513 19.29033 445 ft 60 kts 312°
2026-05-07 17:13 47.42980 19.28279 457 ft 136 kts 312°
2026-05-07 17:13 47.43739 19.27068 767 ft 172 kts 313°
2026-05-07 17:13 47.44574 19.25768 1702 ft 175 kts 310°
2026-05-07 17:14 47.45307 19.24256 2445 ft 189 kts 298°
2026-05-07 17:14 47.45959 19.22483 2957 ft 210 kts 295°
2026-05-07 17:14 47.46689 19.20460 3239 ft 234 kts 296°
2026-05-07 17:14 47.47496 19.18324 3919 ft 240 kts 297°
2026-05-07 17:15 47.48383 19.16166 4602 ft 257 kts 307°
2026-05-07 17:15 47.49762 19.14366 5345 ft 270 kts 319°
2026-05-07 17:15 47.51256 19.12645 6265 ft 274 kts 318°
2026-05-07 17:15 47.52768 19.10882 7172 ft 278 kts 318°
2026-05-07 17:16 47.54282 19.09097 8118 ft 279 kts 318°
2026-05-07 17:16 47.55287 19.07904 8756 ft 280 kts 317°
2026-05-07 17:16 47.56808 19.06085 9697 ft 283 kts 317°
2026-05-07 17:16 47.58349 19.04233 10441 ft 292 kts 317°
2026-05-07 17:17 47.59996 19.02238 10662 ft 319 kts 317°
2026-05-07 17:17 47.61779 19.00115 11082 ft 337 kts 321°
2026-05-07 17:17 47.63957 18.98672 11752 ft 353 kts 346°
2026-05-07 17:17 47.66432 18.98682 12569 ft 364 kts 11°
2026-05-07 17:18 47.68737 19.00278 13370 ft 372 kts 38°
2026-05-07 17:18 47.70652 19.02893 14173 ft 377 kts 45°
2026-05-07 17:18 47.72544 19.05638 14936 ft 382 kts 45°
2026-05-07 17:18 47.74475 19.08386 15752 ft 386 kts 44°
2026-05-07 17:19 47.76662 19.10733 16499 ft 393 kts 24°
2026-05-07 17:19 47.79303 19.11724 17287 ft 394 kts
2026-05-07 17:19 47.82018 19.11287 18062 ft 394 kts 340°
2026-05-07 17:19 47.84479 19.09570 18752 ft 391 kts 321°
2026-05-07 17:20 47.86470 19.06855 19456 ft 388 kts 309°
2026-05-07 17:20 47.88309 19.03900 20150 ft 391 kts 308°
2026-05-07 17:20 47.90142 19.00884 20816 ft 395 kts 308°
2026-05-07 17:20 47.91996 18.97843 21498 ft 398 kts 308°
2026-05-07 17:21 47.93881 18.94784 22135 ft 404 kts 308°
2026-05-07 17:21 47.95819 18.91660 22552 ft 415 kts 308°
2026-05-07 17:21 47.97804 18.88482 23150 ft 419 kts 308°
2026-05-07 17:21 47.99790 18.85305 23768 ft 422 kts 308°
2026-05-07 17:22 48.01797 18.82089 24329 ft 424 kts 308°
2026-05-07 17:22 48.03818 18.78876 24897 ft 426 kts 308°
2026-05-07 17:22 48.05865 18.75669 25452 ft 428 kts 308°
2026-05-07 17:22 48.07933 18.72448 25994 ft 430 kts 308°
2026-05-07 17:23 48.09981 18.69256 26478 ft 433 kts 308°
2026-05-07 17:23 48.12070 18.65996 26961 ft 435 kts 308°
2026-05-07 17:23 48.14169 18.62709 27433 ft 440 kts 307°
2026-05-07 17:23 48.16290 18.59379 27805 ft 444 kts 307°
2026-05-07 17:24 48.18430 18.56013 28278 ft 446 kts 307°
2026-05-07 17:24 48.20572 18.52641 28756 ft 448 kts 307°
2026-05-07 17:24 48.22725 18.49246 29200 ft 450 kts 307°
2026-05-07 17:24 48.24888 18.45830 29609 ft 453 kts 307°
2026-05-07 17:25 48.27064 18.42389 30051 ft 455 kts 307°
2026-05-07 17:25 48.29243 18.38939 30406 ft 457 kts 307°
2026-05-07 17:25 48.31436 18.35462 30727 ft 459 kts 307°
2026-05-07 17:25 48.33640 18.31961 31031 ft 463 kts 306°
2026-05-07 17:26 48.35868 18.28414 31134 ft 471 kts 306°
2026-05-07 17:26 48.38123 18.24820 31426 ft 473 kts 307°
2026-05-07 17:26 48.40383 18.21221 31829 ft 473 kts 307°
2026-05-07 17:26 48.42635 18.17631 32266 ft 471 kts 307°
2026-05-07 17:27 48.44882 18.14045 32746 ft 469 kts 307°
2026-05-07 17:27 48.47114 18.10477 33198 ft 467 kts 306°
2026-05-07 17:27 48.49334 18.06920 33601 ft 466 kts 306°
2026-05-07 17:27 48.51557 18.03351 33984 ft 466 kts 306°
2026-05-07 17:28 48.53767 17.99797 34388 ft 464 kts 307°
2026-05-07 17:28 48.55967 17.96256 34830 ft 461 kts 307°
2026-05-07 17:28 48.58156 17.92726 35122 ft 461 kts 307°
2026-05-07 17:28 48.60351 17.89180 35386 ft 462 kts 307°
2026-05-07 17:29 48.62546 17.85631 35715 ft 461 kts 307°
2026-05-07 17:29 48.64740 17.82080 36077 ft 459 kts 307°
2026-05-07 17:29 48.66904 17.78573 36414 ft 458 kts 307°
2026-05-07 17:29 48.69074 17.75050 36703 ft 457 kts 307°
2026-05-07 17:30 48.71242 17.71526 37018 ft 457 kts 307°
2026-05-07 17:30 48.73401 17.68012 37355 ft 456 kts 308°
2026-05-07 17:30 48.75561 17.64490 37657 ft 455 kts 308°
2026-05-07 17:30 48.77714 17.60977 37912 ft 455 kts 308°
2026-05-07 17:31 48.82061 17.53866 37962 ft 463 kts 308°
2026-05-07 17:31 48.86626 17.46904 37958 ft 465 kts 311°
2026-05-07 17:32 48.91299 17.40119 37951 ft 464 kts 311°
2026-05-07 17:32 48.95895 17.33330 37951 ft 463 kts 310°
2026-05-07 17:33 49.00488 17.26468 37951 ft 462 kts 310°
2026-05-07 17:33 49.05047 17.19558 37949 ft 462 kts 309°
2026-05-07 17:34 49.09532 17.12565 37944 ft 461 kts 309°
2026-05-07 17:34 49.14009 17.05550 37949 ft 461 kts 309°
2026-05-07 17:35 49.18493 16.98525 37951 ft 462 kts 309°
2026-05-07 17:35 49.22979 16.91492 37944 ft 463 kts 309°
2026-05-07 17:36 49.27478 16.84422 37947 ft 464 kts 309°
2026-05-07 17:36 49.31975 16.77337 37945 ft 464 kts 309°
2026-05-07 17:37 49.36474 16.70227 37979 ft 464 kts 309°
2026-05-07 17:37 49.40974 16.63094 37958 ft 465 kts 309°
2026-05-07 17:38 49.45472 16.55946 37964 ft 465 kts 309°
2026-05-07 17:38 49.49964 16.48787 37953 ft 465 kts 309°
2026-05-07 17:39 49.54449 16.41619 37960 ft 465 kts 309°
2026-05-07 17:39 49.58931 16.34435 37967 ft 465 kts 309°
2026-05-07 17:40 49.63374 16.27294 37964 ft 465 kts 309°
2026-05-07 17:40 49.67847 16.20084 37959 ft 465 kts 309°
2026-05-07 17:41 49.72310 16.12870 37962 ft 464 kts 309°
2026-05-07 17:41 49.76767 16.05645 37958 ft 464 kts 309°
2026-05-07 17:42 49.81220 15.98405 37968 ft 464 kts 309°
2026-05-07 17:42 49.85667 15.91155 37959 ft 464 kts 309°
2026-05-07 17:43 49.90111 15.83890 37948 ft 464 kts 309°
2026-05-07 17:43 49.94542 15.76624 37968 ft 464 kts 309°
2026-05-07 17:44 49.98972 15.69339 37963 ft 464 kts 309°
2026-05-07 17:44 50.03397 15.62042 37976 ft 463 kts 310°
2026-05-07 17:45 50.07810 15.54743 37961 ft 463 kts 309°
2026-05-07 17:45 50.12216 15.47435 37949 ft 463 kts 309°
2026-05-07 17:46 50.16615 15.40116 37948 ft 462 kts 309°
2026-05-07 17:46 50.21004 15.32795 37950 ft 462 kts 309°
2026-05-07 17:47 50.25388 15.25460 37956 ft 461 kts 310°
2026-05-07 17:47 50.29760 15.18124 37959 ft 461 kts 309°
2026-05-07 17:48 50.34123 15.10780 37956 ft 461 kts 309°
2026-05-07 17:48 50.38476 15.03432 37974 ft 461 kts 309°
2026-05-07 17:49 50.42834 14.96057 37962 ft 461 kts 309°
2026-05-07 17:49 50.47411 14.89015 37967 ft 465 kts 322°
2026-05-07 17:50 50.52197 14.85097 37984 ft 471 kts 339°
2026-05-07 17:50 50.59642 14.82292 37500 ft 469 kts 345°
2026-05-07 17:51 50.62809 14.81223 36966 ft 464 kts 345°
2026-05-07 17:51 50.65952 14.80137 36412 ft 462 kts 345°
2026-05-07 17:51 50.69084 14.79024 35859 ft 460 kts 345°
2026-05-07 17:51 50.72200 14.77892 35222 ft 460 kts 345°
2026-05-07 17:52 50.75320 14.76744 34559 ft 461 kts 345°
2026-05-07 17:52 50.78446 14.75588 33886 ft 462 kts 345°
2026-05-07 17:52 50.81589 14.74424 33095 ft 463 kts 345°
2026-05-07 17:52 50.84719 14.73265 32396 ft 462 kts 345°
2026-05-07 17:53 50.87836 14.72112 31922 ft 456 kts 345°
2026-05-07 17:53 50.90904 14.70977 31436 ft 450 kts 346°
2026-05-07 17:53 50.93924 14.69857 31083 ft 440 kts 346°
2026-05-07 17:53 50.96862 14.68720 31031 ft 431 kts 345°
2026-05-07 17:54 51.02780 14.66321 30823 ft 448 kts 345°
2026-05-07 17:54 51.05785 14.65095 30362 ft 444 kts 345°
2026-05-07 17:54 51.08765 14.63886 29900 ft 440 kts 345°
2026-05-07 17:55 51.11715 14.62693 29383 ft 435 kts 345°
2026-05-07 17:55 51.14603 14.61522 28872 ft 431 kts 344°
2026-05-07 17:55 51.17443 14.59877 28350 ft 427 kts 333°
2026-05-07 17:55 51.19961 14.57437 27882 ft 422 kts 322°
2026-05-07 17:56 51.22214 14.54465 27375 ft 419 kts 319°
2026-05-07 17:56 51.24419 14.51430 26788 ft 418 kts 318°
2026-05-07 17:56 51.26585 14.48432 26268 ft 416 kts 318°
2026-05-07 17:56 51.28765 14.45422 25759 ft 413 kts 318°
2026-05-07 17:57 51.30959 14.42406 25265 ft 408 kts 319°
2026-05-07 17:57 51.32382 14.40456 24938 ft 405 kts 319°
2026-05-07 17:57 51.35201 14.36605 24297 ft 400 kts 320°
2026-05-07 17:57 51.37305 14.33733 23822 ft 396 kts 320°
2026-05-07 17:58 51.39391 14.30885 23300 ft 392 kts 320°
2026-05-07 17:58 51.41455 14.28065 22740 ft 388 kts 319°
2026-05-07 17:58 51.43496 14.25275 22197 ft 383 kts 319°
2026-05-07 17:58 51.45509 14.22519 21739 ft 378 kts 319°
2026-05-07 17:59 51.47497 14.19793 21327 ft 374 kts 319°
2026-05-07 17:59 51.49466 14.17091 20930 ft 370 kts 319°
2026-05-07 17:59 51.51414 14.14414 20550 ft 368 kts 318°
2026-05-07 17:59 51.53364 14.11729 20171 ft 371 kts 319°
2026-05-07 18:00 51.55333 14.09015 19792 ft 373 kts 318°
2026-05-07 18:00 51.57294 14.06308 19408 ft 370 kts 318°
2026-05-07 18:00 51.59236 14.03628 19025 ft 368 kts 318°
2026-05-07 18:00 51.61167 14.00959 18656 ft 366 kts 318°
2026-05-07 18:01 51.63092 13.98296 18266 ft 364 kts 318°
2026-05-07 18:01 51.65005 13.95645 17847 ft 362 kts 318°
2026-05-07 18:01 51.66907 13.93005 17442 ft 360 kts 318°
2026-05-07 18:01 51.68799 13.90378 17059 ft 358 kts 318°
2026-05-07 18:02 51.72548 13.85161 16319 ft 353 kts 318°
2026-05-07 18:02 51.74402 13.82577 15956 ft 351 kts 318°
2026-05-07 18:02 51.76247 13.80002 15595 ft 350 kts 318°
2026-05-07 18:03 51.78084 13.77436 15237 ft 348 kts 318°
2026-05-07 18:03 51.79909 13.74884 14881 ft 347 kts 318°
2026-05-07 18:03 51.81112 13.73199 14648 ft 345 kts 318°
2026-05-07 18:03 51.82916 13.70672 14291 ft 343 kts 318°
2026-05-07 18:04 51.84719 13.68142 13935 ft 343 kts 319°
2026-05-07 18:04 51.86514 13.65622 13547 ft 342 kts 319°
2026-05-07 18:04 51.88305 13.63105 13172 ft 340 kts 318°
2026-05-07 18:04 51.90083 13.60603 12801 ft 338 kts 318°
2026-05-07 18:05 51.91850 13.58113 12449 ft 336 kts 318°
2026-05-07 18:05 51.93606 13.55638 12112 ft 334 kts 318°
2026-05-07 18:05 51.95351 13.53174 11750 ft 332 kts 319°
2026-05-07 18:05 51.97091 13.50725 11407 ft 331 kts 319°
2026-05-07 18:06 51.98832 13.48295 11071 ft 329 kts 319°
2026-05-07 18:06 52.00560 13.45881 10723 ft 326 kts 319°
2026-05-07 18:06 52.02262 13.43491 10375 ft 320 kts 319°
2026-05-07 18:06 52.03928 13.41139 10037 ft 315 kts 319°
2026-05-07 18:07 52.05569 13.38811 9670 ft 311 kts 319°
2026-05-07 18:07 52.07182 13.36508 9306 ft 307 kts 319°
2026-05-07 18:07 52.08768 13.34221 8930 ft 303 kts 319°
2026-05-07 18:07 52.10329 13.31947 8567 ft 300 kts 319°
2026-05-07 18:08 52.11868 13.29686 8205 ft 297 kts 319°
2026-05-07 18:08 52.13388 13.27437 7851 ft 294 kts 319°
2026-05-07 18:08 52.14891 13.25200 7499 ft 292 kts 319°
2026-05-07 18:08 52.16379 13.22969 7150 ft 289 kts 319°
2026-05-07 18:09 52.17847 13.20755 6804 ft 286 kts 319°
2026-05-07 18:09 52.19282 13.18577 6447 ft 278 kts 319°
2026-05-07 18:09 52.20673 13.16451 6081 ft 270 kts 319°
2026-05-07 18:09 52.22027 13.14378 5708 ft 264 kts 319°
2026-05-07 18:10 52.23347 13.12356 5334 ft 257 kts 319°
2026-05-07 18:10 52.24734 13.10625 4953 ft 247 kts 338°
2026-05-07 18:10 52.26382 13.10177 4601 ft 241 kts
2026-05-07 18:10 52.27868 13.11244 4266 ft 233 kts 44°
2026-05-07 18:11 52.28636 13.13485 4041 ft 223 kts 72°
2026-05-07 18:11 52.29112 13.15889 4019 ft 222 kts 69°
2026-05-07 18:11 52.29650 13.18210 3980 ft 213 kts 68°
2026-05-07 18:11 52.30170 13.20416 3830 ft 204 kts 68°
2026-05-07 18:12 52.30668 13.22537 3582 ft 196 kts 68°
2026-05-07 18:12 52.31142 13.24567 3330 ft 187 kts 68°
2026-05-07 18:12 52.31590 13.26481 3062 ft 173 kts 68°
2026-05-07 18:12 52.32001 13.28238 2840 ft 164 kts 68°
2026-05-07 18:13 52.32406 13.29964 2629 ft 159 kts 68°
2026-05-07 18:13 52.32792 13.31608 2431 ft 155 kts 68°
2026-05-07 18:13 52.33187 13.33289 2197 ft 157 kts 68°
2026-05-07 18:13 52.33563 13.34893 1986 ft 148 kts 68°
2026-05-07 18:14 52.33930 13.36454 1774 ft 143 kts 67°
2026-05-07 18:14 52.34283 13.37957 1580 ft 142 kts 68°
2026-05-07 18:14 52.34636 13.39456 1390 ft 141 kts 68°
2026-05-07 18:14 52.34991 13.40964 1188 ft 143 kts 68°
2026-05-07 18:15 52.35349 13.42485 974 ft 144 kts 68°
2026-05-07 18:15 52.35706 13.43996 772 ft 145 kts 68°
2026-05-07 18:15 52.36066 13.45526 579 ft 144 kts 69°
2026-05-07 18:15 52.36437 13.47082 352 ft 146 kts 69°
2026-05-07 18:16 52.36797 13.48607 171 ft 143 kts 70°
2026-05-07 18:16 52.37113 13.49951 158 ft 100 kts 69°
2026-05-07 18:16 52.37284 13.50680 155 ft 34 kts 72°
2026-05-07 18:16 52.37303 13.51008 158 ft 19 kts 96°
2026-05-07 18:17 52.37289 13.51170 160 ft 11 kts 99°
2026-05-07 18:17 52.37281 13.51250 161 ft 3 kts 99°
2026-05-07 18:17 52.37279 13.51272 161 ft 0 kts 99°
2026-05-07 18:18 52.37279 13.51273 161 ft 1 kts 99°
2026-05-07 18:18 52.37277 13.51291 161 ft 3 kts 99°
2026-05-07 18:18 52.37271 13.51332 161 ft 5 kts 111°
2026-05-07 18:19 52.37245 13.51384 159 ft 6 kts 142°
2026-05-07 18:19 52.37198 13.51419 157 ft 9 kts 159°
2026-05-07 18:19 52.37139 13.51456 158 ft 9 kts 159°
2026-05-07 18:19 52.37082 13.51484 156 ft 9 kts 175°
2026-05-07 18:20 52.37037 13.51432 155 ft 8 kts 244°
2026-05-07 18:20 52.37015 13.51345 154 ft 8 kts 248°
2026-05-07 18:20 52.36994 13.51260 154 ft 8 kts 248°
2026-05-07 18:20 52.36975 13.51177 154 ft 8 kts 249°
2026-05-07 18:21 52.36956 13.51097 154 ft 7 kts 249°
2026-05-07 18:21 52.36938 13.51019 154 ft 7 kts 248°
2026-05-07 18:21 52.36917 13.50935 154 ft 9 kts 249°
2026-05-07 18:21 52.36894 13.50836 154 ft 9 kts 248°
2026-05-07 18:22 52.36870 13.50737 154 ft 9 kts 249°
2026-05-07 18:22 52.36855 13.50673 154 ft 9 kts 249°
2026-05-07 18:22 52.36827 13.50552 154 ft 8 kts 249°
2026-05-07 18:22 52.36806 13.50475 155 ft 6 kts 232°
2026-05-07 18:23 52.36788 13.50475 155 ft 3 kts 161°
2026-05-07 18:23 52.36770 13.50485 156 ft 3 kts 160°
2026-05-07 18:23 52.36753 13.50496 156 ft 3 kts 159°
2026-05-07 18:23 52.36737 13.50506 155 ft 2 kts 159°
2026-05-07 18:24 52.36733 13.50509 155 ft 0 kts 159°